This is the latest recevied weather packets stored in our database for station/object KC8BSD. If no packets are shown the sender has not sent any weather packets the latest 10 day(s).
| Time | Temp. | Humidity | Pressure | Rain* | Wind** | Luminosity | Snow |
|---|---|---|---|---|---|---|---|
| 1778151378 | 1.67° C | 89% | 1014.1 hPa | 0 mm | - | 13 W/m² | - |
| 1778151074 | 1.67° C | 89% | 1014.4 hPa | 0 mm | - | 11 W/m² | - |
| 1778150772 | 1.67° C | 89% | 1014.2 hPa | 0 mm | - | 9 W/m² | - |
| 1778150468 | 1.67° C | 89% | 1013.9 hPa | 0 mm | - | 7 W/m² | - |
| 1778150164 | 1.11° C | 88% | 1014.1 hPa | 0 mm | - | 5 W/m² | - |
| 1778149861 | 0.56° C | 87% | 1014.1 hPa | 0 mm | - | 3 W/m² | - |
| 1778149557 | 0.56° C | 87% | 1013.9 hPa | 0 mm | - | 2 W/m² | - |
| 1778149254 | 0.56° C | 87% | 1013.7 hPa | 0 mm | - | 0 W/m² | - |
| 1778148949 | 0.56° C | 86% | 1013.7 hPa | 0 mm | - | 0 W/m² | - |
| 1778148646 | 0.56° C | 86% | 1013.7 hPa | 0 mm | - | 0 W/m² | - |
| 1778148343 | 1.11° C | 86% | 1013.6 hPa | 0 mm | - | 0 W/m² | - |
| 1778148041 | 1.11° C | 85% | 1013.6 hPa | 0 mm | - | 0 W/m² | - |
| 1778147739 | 1.11° C | 85% | 1013.5 hPa | 0 mm | - | 0 W/m² | - |
| 1778147435 | 1.11° C | 84% | 1013.7 hPa | 0 mm | - | 0 W/m² | - |
| 1778147131 | 1.67° C | 84% | 1013.8 hPa | 0 mm | - | 0 W/m² | - |
| 1778146829 | 1.67° C | 84% | 1013.7 hPa | 0 mm | - | 0 W/m² | - |
| 1778146526 | 1.67° C | 83% | 1013.6 hPa | 0 mm | - | 0 W/m² | - |
| 1778146225 | 1.67° C | 82% | 1013.8 hPa | 0 mm | - | 0 W/m² | - |
| 1778145921 | 2.22° C | 81% | 1013.9 hPa | 0 mm | - | 0 W/m² | - |
| 1778145617 | 2.22° C | 81% | 1013.7 hPa | 0 mm | - | 0 W/m² | - |
| 1778145314 | 2.78° C | 80% | 1013.8 hPa | 0 mm | - | 0 W/m² | - |
| 1778145010 | 2.78° C | 79% | 1013.9 hPa | 0 mm | - | 0 W/m² | - |
| 1778144706 | 3.33° C | 79% | 1013.7 hPa | 0 mm | - | 0 W/m² | - |
| 1778144403 | 3.33° C | 79% | 1013.9 hPa | 0 mm | - | 0 W/m² | - |
| 1778144100 | 3.33° C | 78% | 1014 hPa | 0 mm | - | 0 W/m² | - |
* Rain latest hour (hover to see other rain measurements)
** Current wind speed in m/s (hover to see current wind gust speed)